Regional Weather Roundup
Issued by NWS

Home | Current Version | Previous Version | Graphics & Text | Print | Product List | Glossary On
Versions: 1 2 3 4 5 6 7 8 9 10 11 12 13 14 15 16 17 18 19 20 21 22 23 24 25 26 27 28 29 30 31 32 33 34 35 36 37 38 39 40 41 42 43 44 45 46 47 48 49 50
525
ASUS43 KFSD 231110
RWRSD

WEATHER ROUNDUP FOR SOUTH DAKOTA
NATIONAL WEATHER SERVICE SIOUX FALLS SD
600 AM CDT MON OCT 23 2017

NOTE: "FAIR" INDICATES FEW OR NO CLOUDS BELOW 12,000 FEET WITH NO
SIGNIFICANT WEATHER AND/OR OBSTRUCTIONS TO VISIBILITY.


SDZ001>005-009-010-012>017-231200-
NORTHWEST AND NORTH CENTRAL SOUTH DAKOTA

CITY           SKY/WX    TMP DP  RH WIND       PRES   REMARKS
BUFFALO          N/A     41  31  67 W21       30.05R
MOBRIDGE       CLOUDY    51  40  65 NW23G35   29.93R
$$

SDZ012>016-024>037-041>051-057-063-072>074-231200-
SOUTHWEST AND SOUTH CENTRAL SOUTH DAKOTA

CITY           SKY/WX    TMP DP  RH WIND       PRES   REMARKS
RAPID CTY ARPT CLEAR     49  21  33 NW30G47   30.14R
PIERRE         CLOUDY    51  37  58 NW24G32   30.01R
CUSTER         CLEAR     39  17  41 NW12G30   30.18R
ELLSWORTH AFB  CLEAR     49  21  33 NW28G37   30.13R
PHILIP         CLEAR     47  28  47 W12       30.10R
PINE RIDGE     CLOUDY    42  36  79 CALM      30.17R
SPEARFISH      FAIR      46  19  34 W23G33    30.20R
WINNER         FAIR      53  34  48 NW15G26   30.04R
$$

SDZ004>011-016>023-039-040-231200-
NORTHEAST SOUTH DAKOTA

CITY           SKY/WX    TMP DP  RH WIND       PRES   REMARKS
ABERDEEN       CLEAR     48  39  71 NW17G26   29.88R
WATERTOWN      CLOUDY    50  40  68 W16G28    29.85R
BROOKINGS      CLOUDY    52  41  66 NW18      29.87R
SISSETON         N/A     52  40  63 W17       29.79R
$$

SDZ017-020-022-023-036>040-048>070-231200-
SOUTHEAST SOUTH DAKOTA

CITY           SKY/WX    TMP DP  RH WIND       PRES   REMARKS
SIOUX FALLS    CLOUDY    57  42  57 NW16G26   29.89R
HURON          CLOUDY    53  38  56 NW23G30   29.91R
CHAMBERLAIN    PTCLDY    54  38  54 NW17G25   30.00R
MITCHELL       CLOUDY    56  40  55 NW20      29.94R
YANKTON        PTCLDY    58  39  49 NW16G25   29.94R
$$

ABBREVIATIONS USED IN REMARKS
   TC - TEMPERATURE IN CELSIUS
  WCI - WIND CHILL INDEX
   HX - HEAT INDEX
  VSB - VISIBILITY





USA.gov is the U.S. government's official web portal to all federal, state and local government web resources and services.